Flag for Brazil Weather past 2 weeks in Recife, Pernambuco, Brazil

Now
82 °F

Scattered clouds.


Feels Like: 88 °F
Forecast: 75 / 82 °F
Wind: 17 mph from Southeast

Location: Recife Aeroporto

Current Time: Jul 28, 2014 at 11:30:36 AM

Latest Report: Jul 28, 2014 at 11:00 AM


Visibility: N/A

Pressure: 30.07 "Hg

Humidity: 74%

Dew point: 73 °F

Location of RecifeLocation

Historic Weather in Recife — Graph

°F

Recife temperature yesterday

Maximum temperature yesterday: 82 °F (at 9:00 AM)
Minimum temperature yesterday: 72 °F (at 3:00 AM)
Average temperature yesterday: 76 °F

Past Weeks' High & Low Weather Summary

 TemperatureHumidityPressure
High84 °F (Jul 15, 12:00 PM)100% (Jul 13, 4:00 PM)30.12 "Hg (Jul 13, 4:00 PM)
Low70 °F (Jul 20, 5:00 AM)24% (Jul 27, 6:00 PM)29.95 "Hg (Jul 25, 3:00 AM)
Average78 °F80%30.04 "Hg
* Reported Jul 13 10:00 AM — Jul 28 10:00 AM, Recife, Weather by CustomWeather, © 2014

Note: Actual official high and low records may vary slightly from our data, if they occured in-between our weather recording intervals... More about our weather records

Advertising

Recife weather history for previous 24 hours

 ConditionsComfort  
Time TempWeatherWind HumidityBarometerVisibility
10:00 AM
Jul 28
82 °FScattered clouds.18 mph70%30.07 "HgN/A
9:00 AM82 °FScattered clouds.16 mph70%30.07 "HgN/A
8:00 AM79 °FScattered clouds.16 mph79%30.07 "HgN/A
7:00 AM79 °FPassing clouds.15 mph79%30.04 "HgN/A
6:00 AM77 °FPartly sunny.14 mph83%30.04 "HgN/A
5:00 AM77 °FPartly cloudy.15 mph83%30.01 "HgN/A
4:00 AM77 °FMostly cloudy.14 mph89%30.01 "HgN/A
3:00 AM75 °FLight rain. Mostly cloudy.14 mph89%29.98 "Hg2 mi
2:00 AM73 °FPassing clouds.2 mph94%30.01 "HgN/A
1:00 AM73 °FLight rain. Mostly cloudy.3 mph94%30.01 "Hg2 mi
12:00 AM72 °FLight rain. Mostly cloudy.3 mph100%30.04 "Hg2 mi
11:00 PM
Jul 27
73 °FLight rain. Mostly cloudy.3 mph100%30.04 "Hg2 mi
10:00 PM73 °FLight rain. Mostly cloudy.3 mph94%30.04 "Hg2 mi
9:00 PM73 °FLight rain. Mostly cloudy.7 mph100%30.04 "Hg2 mi
8:00 PM73 °FLight rain. Mostly cloudy.5 mph100%30.04 "Hg3 mi
7:00 PM73 °FLight rain. Mostly cloudy.5 mph100%30.01 "Hg3 mi
6:00 PM75 °FLight rain. Overcast.7 mph24%30.01 "Hg2 mi
5:00 PM79 °FBroken clouds.7 mph84%29.98 "HgN/A
4:00 PM79 °FBroken clouds.10 mph84%29.98 "HgN/A
3:00 PM79 °FSunny.10 mph79%29.98 "Hg10 mi
2:00 PM82 °FPartly sunny.7 mph74%29.95 "HgN/A
1:00 PM82 °FPartly sunny.6 mph70%29.98 "HgN/A
12:00 PM81 °FPassing clouds.7 mph74%30.01 "HgN/A
11:00 AM79 °FBroken clouds.12 mph84%30.01 "HgN/A
Weather by CustomWeather, © 2014

See weather overviewHow to use our weather pages